Regional Weather Roundup
Issued by NWS

Home | Current Version | Previous Version | Graphics & Text | Print | Product List | Glossary On
Versions: 1 2 3 4 5 6 7 8 9 10 11 12 13 14 15 16 17 18 19 20 21 22 23 24 25 26 27 28 29 30 31 32 33 34 35 36 37 38 39 40 41 42 43 44 45 46 47 48 49 50
000
ASUS43 KLOT 240500
RWRIL

ILLINOIS REGIONAL WEATHER ROUNDUP
NATIONAL WEATHER SERVICE CHICAGO/ROMEOVILLE IL
1200 AM CDT THU JUL 24 2014

NOTE: "FAIR" INDICATES FEW OR NO CLOUDS BELOW 12,000 FEET WITH NO
SIGNIFICANT WEATHER AND/OR OBSTRUCTIONS TO VISIBILITY.

* THESE STATIONS ARE NOT UNDER NWS QUALITY CONTROL. THEY ALSO MAY NOT
  REPORT WEATHER SUCH AS PRECIPITATION OR FOG.

ILZ001-002-007-009-015-016-024-240600-
NORTHWEST ILLINOIS

CITY           SKY/WX    TMP DP  RH WIND       PRES   REMARKS
MOLINE         CLEAR     61  57  87 CALM      30.15R
STERLING*      CLEAR     59  55  88 E5        30.18S
$$

ILZ003-004-008-010-011-017-018-240600-
NORTH CENTRAL ILLINOIS

CITY           SKY/WX    TMP DP  RH WIND       PRES   REMARKS
ROCKFORD       CLEAR     60  49  66 NE3       30.19F
FREEPORT*      MOCLDY    56  52  88 E5        30.20S
PERU*          CLEAR     60  52  76 NE6       30.17S
$$

ILZ005-006-012>014-019>023-240600-
NORTHEAST ILLINOIS

CITY           SKY/WX    TMP DP  RH WIND       PRES   REMARKS
CHICAGO-OHARE  CLEAR     60  49  66 N6        30.15R
CHICAGO-MIDWAY CLEAR     64  54  69 N9        30.14R
AURORA         CLEAR     55  49  80 NW5       30.15F
LANSING*       CLEAR     61  55  79 N7        30.13S
WAUKEGAN       CLEAR     56  50  80 N3        30.15S
DUPAGE AIRPORT CLEAR     55  49  80 N6        30.15R
WHEELING       CLEAR     59  51  75 N6        30.16S
NORTHERLY ISL    N/A     62  55  77 N10         N/A
$$

LMZ740>746-240600-
SOUTHERN LAKE MICHIGAN

STATION/POSITION SKY/WX   TEMP    WIND        PRES    VSBY  WAVE
                          AIR SEA DIR/SP/G                  HT/PER
                          (F)     (DEG/KT/KT) (MB)    (MI)  (FT/S)
SOUTHERN BUOY              60 59   20/ 12/ 14 1020.4R         4/ 6
WAUKEGAN HARBOR            61      10/ 10/ 14 1022.4S
HARRISON CRIB              63      10/ 19/ 22   N/A
BURNHAM HARBOR             62     360/ 11/ 16   N/A
CALUMET HARBOR             62     350/  7/ 11 1019.1S
MICHIGAN CITY              66      20/ 17/ 20   N/A
MICHIGAN CITY 6N           67 68   40/ 16/ 21   N/A           8/ 2
ST. JOSEPH                 55 49   20/  8/ 12   N/A           5/ 2
$$

ILZ025>027-034>036-040-047-049-050-058-095>099-240600-
WEST-CENTRAL ILLINOIS

CITY           SKY/WX    TMP DP  RH WIND       PRES   REMARKS
QUINCY         CLEAR     64  57  78 NE5       30.14S
GALESBURG*     PTCLDY    59  56  91 CALM      30.16R
MACOMB*        CLEAR     59  58  96 CALM      30.17S
$$

ILZ028>032-037-038-041>044-048-051>054-059>061-240600-
CENTRAL ILLINOIS

CITY           SKY/WX    TMP DP  RH WIND       PRES   REMARKS
PONTIAC        CLEAR     57  55  94 N3        30.14F
PEORIA         CLEAR     66  54  65 E6        30.16R
SPRINGFIELD    CLEAR     64  54  69 E6        30.15R
TAYLORVILLE    NOT AVBL
$$

ILZ033-039-045-046-055>057-062-063-240600-
EAST-CENTRAL ILLINOIS

CITY           SKY/WX    TMP DP  RH WIND       PRES   REMARKS
CHAMPAIGN      CLEAR     59  53  80 N9        30.12S
MATTOON        CLEAR     56  50  80 N6        30.10S
$$

ILZ079-100>102-240600-
SOUTHWEST ILLINOIS

CITY           SKY/WX    TMP DP  RH WIND       PRES   REMARKS
BELLEVILLE     CLEAR     66  60  81 N2        30.11R
CAHOKIA*       CLEAR     67  59  75 NE6       30.12R
SPARTA*        CLEAR     63  59  88 NE5       30.11S
$$

ILZ064>066-069>071-074>076-080>082-084>086-088>090-092>094-240600-
SOUTH-CENTRAL ILLINOIS

CITY           SKY/WX    TMP DP  RH WIND       PRES   REMARKS
CARBONDALE     CLEAR     67  58  72 N6        30.09R
MT. VERNON     CLEAR     63  50  63 N6        30.10F
SALEM*         CLEAR     62  55  77 CALM      30.11S
$$

ILZ067-068-072-073-078-083-087-091-240600-
SOUTHEAST ILLINOIS

CITY           SKY/WX    TMP DP  RH WIND       PRES   REMARKS
LAWRENCEVILLE  CLEAR     61  54  77 N7        30.07S
HARRISBURG*    CLEAR     66  59  79 N5        30.08S
ROBINSON*      CLEAR     60  53  75 N5        30.09S
$$

ABBREVIATIONS USED IN REMARKS
   TC - TEMPERATURE IN CELSIUS
  WCI - WIND CHILL INDEX
   HX - HEAT INDEX
  VSB - VISIBILITY
$$




USA.gov is the U.S. government's official web portal to all federal, state and local government web resources and services.